TimeEDT,TemperatureF,Dew PointF,Humidity,Sea Level PressureIn,VisibilityMPH,Wind Direction,Wind SpeedMPH,Gust SpeedMPH,PrecipitationIn,Events,Conditions,WindDirDegrees,DateUTC
12:53 AM,64.9,55.9,73,30.28,10.0,South,3.5,-,N/A,,Clear,170,2013-08-25 04:53:00
1:53 AM,61.0,55.9,83,30.28,10.0,Calm,Calm,-,N/A,,Clear,0,2013-08-25 05:53:00
2:53 AM,59.0,55.9,90,30.28,10.0,Calm,Calm,-,N/A,,Clear,0,2013-08-25 06:53:00
3:53 AM,57.9,55.9,93,30.28,10.0,Calm,Calm,-,N/A,,Clear,0,2013-08-25 07:53:00
4:53 AM,57.9,55.9,93,30.29,9.0,Calm,Calm,-,N/A,,Clear,0,2013-08-25 08:53:00
5:15 AM,55.4,53.6,94,30.30,2.5,Calm,Calm,-,N/A,,Clear,0,2013-08-25 09:15:00
5:23 AM,57.2,55.4,94,30.30,5.0,Calm,Calm,-,N/A,,Clear,0,2013-08-25 09:23:00
5:53 AM,59.0,55.0,87,30.29,7.0,Calm,Calm,-,N/A,,Mostly Cloudy,0,2013-08-25 09:53:00
6:53 AM,57.0,55.0,93,30.30,7.0,Calm,Calm,-,N/A,,Scattered Clouds,0,2013-08-25 10:53:00
7:53 AM,63.0,57.9,84,30.30,10.0,Calm,Calm,-,N/A,,Partly Cloudy,0,2013-08-25 11:53:00
8:53 AM,68.0,59.0,73,30.30,10.0,South,4.6,-,N/A,,Scattered Clouds,180,2013-08-25 12:53:00
9:53 AM,72.0,57.0,59,30.30,10.0,SSW,8.1,-,N/A,,Scattered Clouds,210,2013-08-25 13:53:00
10:53 AM,77.0,60.1,56,30.28,10.0,WSW,8.1,-,N/A,,Partly Cloudy,240,2013-08-25 14:53:00
11:53 AM,80.1,60.1,50,30.26,10.0,WSW,11.5,-,N/A,,Scattered Clouds,240,2013-08-25 15:53:00
12:53 PM,82.0,57.9,44,30.24,10.0,SW,12.7,17.3,N/A,,Partly Cloudy,220,2013-08-25 16:53:00
1:53 PM,84.0,55.0,37,30.23,10.0,West,12.7,-,N/A,,Partly Cloudy,260,2013-08-25 17:53:00
2:53 PM,84.0,57.9,41,30.21,10.0,WSW,9.2,-,N/A,,Partly Cloudy,250,2013-08-25 18:53:00
3:53 PM,86.0,59.0,40,30.19,10.0,SW,12.7,18.4,N/A,,Partly Cloudy,230,2013-08-25 19:53:00
4:53 PM,87.1,60.1,40,30.17,10.0,SW,6.9,19.6,N/A,,Partly Cloudy,220,2013-08-25 20:53:00
5:53 PM,84.9,60.1,43,30.16,10.0,SW,9.2,-,N/A,,Partly Cloudy,220,2013-08-25 21:53:00
6:53 PM,82.9,61.0,47,30.15,10.0,SSW,9.2,-,N/A,,Partly Cloudy,210,2013-08-25 22:53:00
7:53 PM,81.0,61.0,50,30.15,10.0,SW,8.1,-,N/A,,Clear,220,2013-08-25 23:53:00
8:53 PM,79.0,62.1,56,30.15,10.0,SW,6.9,-,N/A,,Clear,220,2013-08-26 00:53:00
9:53 PM,77.0,62.1,60,30.16,10.0,SSW,5.8,-,N/A,,Clear,210,2013-08-26 01:53:00
10:53 PM,75.9,62.1,62,30.16,10.0,SW,6.9,-,N/A,,Clear,230,2013-08-26 02:53:00
11:53 PM,75.9,61.0,60,30.15,10.0,WSW,6.9,-,N/A,,Clear,240,2013-08-26 03:53:00